Regional Weather Roundup
Issued by NWS Cleveland, OH

Home | Current Version | Previous Version | Graphics & Text | Print | Product List | Glossary On
Versions: 1 2 3 4 5 6 7 8 9 10 11 12 13 14 15 16 17 18 19 20 21 22 23 24 25 26 27 28 29 30 31 32 33 34 35 36 37 38 39 40 41 42 43 44 45 46 47 48 49 50
000
ASUS41 KCLE 300102
RWRCLE
OHIO REGIONAL WEATHER ROUNDUP
NATIONAL WEATHER SERVICE CLEVELAND, OH
900 PM EDT MON AUG 29 2016

NOTE: "FAIR" INDICATES FEW OR NO CLOUDS BELOW 12,000 FEET WITH NO
SIGNIFICANT WEATHER AND/OR OBSTRUCTIONS TO VISIBILITY.

OHZ001>008-015>018-024>027-034-035-043-044-300200-
   NORTHWEST OHIO

CITY           SKY/WX    TMP DP  RH WIND       PRES   REMARKS
DEFIANCE       CLEAR     76  67  73 NE5       30.20R
FINDLAY        CLEAR     77  63  61 NE9       30.20R
TOLEDO EXPRESS CLEAR     71  65  81 E3        30.21R
TOLEDO EXEC    CLEAR     73  67  81 CALM      30.22R
LIMA           CLEAR     74  70  87 NE5       30.21R
$$

OHZ009>014-019>023-028>033-038-089-300200-
   NORTHEAST OHIO

CITY           SKY/WX    TMP DP  RH WIND       PRES   REMARKS
CLE-HOPKINS    PTCLDY    74  57  55 NE7       30.23R
CLE-LAKEFRONT  CLEAR     75  58  55 NE7       30.21R
CUY CO. ARPT   CLEAR     70  61  73 CALM      30.23R
LORAIN-ELYRIA  CLEAR     68  60  75 CALM      30.23R
ASHTABULA      CLEAR     63  61  93 CALM      30.24R
AKRON-CANTON   CLEAR     73  60  63 N10       30.22R
WOOSTER        CLEAR     69  61  75 N9        30.23R
MANSFIELD      CLEAR     71  63  75 N6        30.23R
YOUNGSTOWN     PTCLDY    69  57  65 NE5       30.23R
$$

OHZ042-051>053-060>062-070>072-077>081-300200-
  SOUTHWEST OHIO

CITY           SKY/WX    TMP DP  RH WIND       PRES   REMARKS
CINC-COVINGTON PTCLDY    83  71  67 E8        30.17R
CINC-LUNKEN    CLEAR     76  75  97 CALM      30.16R
HAMILTON       CLEAR     74  71  91 CALM      30.17R
DAYTON         PTCLDY    77  68  73 NE6       30.20R
WRIGHT-PAT AFB CLEAR     77  70  78 N2        30.18R
DAYTON GENERAL CLEAR     79  68  69 NE3       30.18R
WILMINGTON     CLEAR     77  71  82 CALM      30.19R
$$

OHZ036-037-039>041-045>050-054>059-063>069-073>076-082>088-300200-
  CENTRAL AND SOUTHEAST OHIO

CITY           SKY/WX    TMP DP  RH WIND       PRES   REMARKS
COLUMBUS       PTCLDY    78  67  68 N5        30.18R
OSU AIRPORT    CLEAR     77  68  73 N8        30.19R
BOLTON FIELD   CLEAR     76  67  72 NE3       30.19S
RICKENBACK AFB CLEAR     78  67  70 NE3       30.18R
NEWARK         CLEAR     74  69  85 CALM      30.19R
MARION         CLEAR     73  66  78 NE9       30.22R
LANCASTER      CLEAR     73  70  90 CALM      30.19R
ZANESVILLE     CLEAR     76  66  71 N3        30.19R
NEW PHILLY     CLEAR     73  59  61 CALM      30.20R
$$




USA.gov is the U.S. government's official web portal to all federal, state and local government web resources and services.